Weather in Yuldybayevo

Russia / Republic of Bashkortostan     52°20′32″N   57°52′28″E
temp.,
°C
wind,
m/s
gust,
m/s
humid.,
%
clouds,
%
prec.,
mm/h
press.,
hPa
HPBL,
m
25 february, thu
thu2523:00−23nnw4109098 0.3 1022247
02:00−24nw379177 0.0 1025136
05:00−26nw239367 0.0 102728
08:00−28wnw22920 0.0 103020
11:00−19nw22770 0.0 1032171
14:00−14ssw21690 0.0 1032566
17:00−15wsw45882 0.0 1032435
20:00−25w339516 0.0 103341
26 february, fri
fri2623:00−27w23858 0.0 103419
02:00−28w228825 0.0 103319
05:00−28wsw229234 0.0 103220
08:00−24ssw2389100 0.0 1030126
11:00−20s3595100 0.1 1029258
14:00−16s4694100 0.2 1026436
17:00−17sse4795100 0.3 1025431
20:00−18sse4997100 0.3 1024416
27 february, sat
sat2723:00−18sse3997100 0.6 1022369
02:00−17sse41097100 0.2 1019349
05:00−16sse51096100 0.6 1016377
08:00−14sse51195100 0.7 1012428
11:00−9s61495100 3.4 1008581
14:00−5ssw71294100 1.8 1005669
17:00−2ssw61195100 2.3 1004519
20:00−1wsw51193100 0.4 1003755
28 february, sun
sun2823:00−2wsw41096100 0.6 1003634
02:00−2wsw4995100 0.6 1002615
05:00−3wsw3797100 1.1 1002347
08:00−4wsw399599 0.8 1002519
11:00−2wsw599297 0.9 1003795
14:00−2sw6894100 0.3 1004760
17:00−2wsw5994100 0.6 1004773
20:00−4sw499699 0.6 1005432
1 march, mon
mon123:00−5sw249799 0.9 1007100
02:00−9wsw489599 0.4 1008232
05:00−14w499598 0.4 1011207
08:00−15w489493 0.1 1013187
11:00−11wnw249390 0.1 1014219
14:00−6w339299 0.1 1015386
17:00−7w3593100 0.2 1016306
20:00−13w359592 0.1 1017138